Regional Weather Roundup
Issued by NWS

Home | Current Version | Previous Version | Graphics & Text | Print | Product List | Glossary On
Versions: 1 2 3 4 5 6 7 8 9 10 11 12 13 14 15 16 17 18 19 20 21 22 23 24 25 26 27 28 29 30 31 32 33 34 35 36 37 38 39 40 41 42 43 44 45 46 47 48 49 50
000
ASUS43 KLOT 300706
RWRIL

ILLINOIS REGIONAL WEATHER ROUNDUP
NATIONAL WEATHER SERVICE CHICAGO/ROMEOVILLE IL
200 AM CDT WED JUL 30 2014

NOTE: "FAIR" INDICATES FEW OR NO CLOUDS BELOW 12,000 FEET WITH NO
SIGNIFICANT WEATHER AND/OR OBSTRUCTIONS TO VISIBILITY.

* THESE STATIONS ARE NOT UNDER NWS QUALITY CONTROL. THEY ALSO MAY NOT
  REPORT WEATHER SUCH AS PRECIPITATION OR FOG.

ILZ001-002-007-009-015-016-024-300800-
NORTHWEST ILLINOIS

CITY           SKY/WX    TMP DP  RH WIND       PRES   REMARKS
MOLINE         CLEAR     61  57  87 CALM      30.05F
STERLING*      CLOUDY    63  57  82 SW5       30.03F
SAVANNA*       MOCLDY    62  59  90 S3        30.03S
$$

ILZ003-004-008-010-011-017-018-300800-
NORTH CENTRAL ILLINOIS

CITY           SKY/WX    TMP DP  RH WIND       PRES   REMARKS
ROCKFORD       PTCLDY    60  56  86 SW6       30.05F
FREEPORT*      PTCLDY    58  56  94 CALM      30.05F
ROCHELLE*      PTCLDY    59  56  90 CALM      30.04S
DE KALB*       PTCLDY    57  55  91 W3        30.03F
PERU*          CLEAR     58  55  91 W3        30.05S
$$

ILZ005-006-012>014-019>023-300800-
NORTHEAST ILLINOIS

CITY           SKY/WX    TMP DP  RH WIND       PRES   REMARKS
CHICAGO-OHARE  PTCLDY    61  54  77 W8        30.00F
CHICAGO-MIDWAY PTCLDY    64  56  75 SW3       30.01S
AURORA         PTCLDY    58  55  90 SW3       30.02F
LANSING*       CLEAR     59  55  88 W3        30.01S
JOLIET*        CLEAR     56  53  91 CALM      30.03S
WAUKEGAN       PTCLDY    58  55  90 VRB3      29.99F
DUPAGE AIRPORT PTCLDY    59  55  87 CALM      30.01F
KANKAKEE*      PTCLDY    61  60  94 W3        30.03F
WHEELING       PTCLDY    62  58  86 W3        30.02S
MORRIS*        CLEAR     61  60  97 CALM      30.02F
ROMEOVILLE*    CLEAR     58  55  89 W6        30.02F
NORTHERLY ISL    N/A     64  56  75 W2          N/A
$$

LMZ740>746-300800-
SOUTHERN LAKE MICHIGAN

STATION/POSITION SKY/WX   TEMP    WIND        PRES    VSBY  WAVE
                          AIR SEA DIR/SP/G                  HT/PER
                          (F)     (DEG/KT/KT) (MB)    (MI)  (FT/S)
SOUTHERN BUOY              61 61  310/  2/  2 1015.7F         1
WAUKEGAN HARBOR            62     270/  6/  8   N/A
HARRISON CRIB              63     330/  1/  1   N/A
BURNHAM HARBOR             64     240/  2/  6   N/A
CALUMET HARBOR             63     210/  2/  3 1015.0R
MICHIGAN CITY              63     190/  3/  4   N/A
MICHIGAN CITY 6N           65 68  230/  4/  6   N/A           1/ 3
ST. JOSEPH                 65 67  340/  4/  6   N/A           1
$$

ILZ025>027-034>036-040-047-049-050-058-095>099-300800-
WEST-CENTRAL ILLINOIS

CITY           SKY/WX    TMP DP  RH WIND       PRES   REMARKS
QUINCY         CLEAR     60  56  86 SW3       30.08F
GALESBURG*     CLEAR     60  56  88 CALM      30.06F
MACOMB*        CLEAR     57  56  97 W3        30.09F
JACKSONVILLE*  CLEAR     60  58  93 SW5       30.09F
PITTSFIELD*    CLEAR     59  56  90 W3        30.10F
$$

ILZ028>032-037-038-041>044-048-051>054-059>061-300800-
CENTRAL ILLINOIS

CITY           SKY/WX    TMP DP  RH WIND       PRES   REMARKS
PONTIAC        CLEAR     61  59  94 CALM      30.04S
DECATUR        CLEAR     64  57  78 W6        30.07F
PEORIA         CLEAR     65  57  75 CALM      30.05F
LACON*         CLEAR     60  56  88 CALM      30.04F
LINCOLN*       CLEAR     62  57  84 CALM      30.04F
SPRINGFIELD    CLEAR     61  57  87 W7        30.07F
TAYLORVILLE    CLEAR     55  54  94 W5        30.08S
$$

ILZ033-039-045-046-055>057-062-063-300800-
EAST-CENTRAL ILLINOIS

CITY           SKY/WX    TMP DP  RH WIND       PRES   REMARKS
CHAMPAIGN      CLEAR     59  56  89 SW6       30.06S
DANVILLE*      PTCLDY    59  57  93 W5        30.01F
RANTOUL*       CLEAR     63  57  82 W6        30.06S
MATTOON        CLEAR     63  56  78 SW6       30.06F
PARIS*         CLEAR     60  57  89 SW5       30.06F
$$

ILZ079-100>102-300800-
SOUTHWEST ILLINOIS

CITY           SKY/WX    TMP DP  RH WIND       PRES   REMARKS
ALTON          CLEAR     58  58 100 CALM      30.09F
BELLEVILLE     CLEAR     57  57 100 CALM      30.08F
CAHOKIA*       CLOUDY    63  58  83 CALM      30.09F
SPARTA*        CLEAR     59  55  88 CALM      30.10F
$$

ILZ064>066-069>071-074>076-080>082-084>086-088>090-092>094-300800-
SOUTH-CENTRAL ILLINOIS

CITY           SKY/WX    TMP DP  RH WIND       PRES   REMARKS
CARBONDALE     CLEAR     58  56  93 CALM      30.10S
CAIRO*         CLEAR     61  58  90 CALM      30.10S
EFFINGHAM*     CLEAR     56  53  89 CALM      30.08S
MARION         CLEAR     59  57  94 CALM      30.10F
MT. VERNON     CLEAR     57  52  82 CALM      30.10F
CENTRALIA*     CLEAR     55  53  93 CALM      30.09F
SALEM*         CLEAR    N/A N/A N/A CALM      30.10S
METROPOLIS*    CLEAR     56  54  92 CALM      30.10S
$$

ILZ067-068-072-073-078-083-087-091-300800-
SOUTHEAST ILLINOIS

CITY           SKY/WX    TMP DP  RH WIND       PRES   REMARKS
LAWRENCEVILLE  CLEAR     60  57  89 CALM      30.07F
FLORA*         CLEAR     55  54  94 CALM      30.09S
FAIRFIELD*     CLEAR     57  57 100 CALM      30.09S
HARRISBURG*    CLEAR     58  58 100 CALM      30.10F
ROBINSON*      CLEAR     56  55  96 SW5       30.08S
CARMI*         CLEAR     59  57  94 CALM      30.08S
$$

ABBREVIATIONS USED IN REMARKS
   TC - TEMPERATURE IN CELSIUS
  WCI - WIND CHILL INDEX
   HX - HEAT INDEX
  VSB - VISIBILITY
$$




USA.gov is the U.S. government's official web portal to all federal, state and local government web resources and services.